Regional Weather Roundup
Issued by NWS

Home | Current Version | Previous Version | Graphics & Text | Print | Product List | Glossary On
Versions: 1 2 3 4 5 6 7 8 9 10 11 12 13 14 15 16 17 18 19 20 21 22 23 24 25 26 27 28 29 30 31 32 33 34 35 36 37 38 39 40 41 42 43 44 45 46 47 48 49 50
000
ASUS43 KDMX 220707
RWRIA

WEATHER ROUNDUP FOR IOWA
NATIONAL WEATHER SERVICE DES MOINES IA
200 AM CDT FRI AUG 22 2014

NOTE: "FAIR" INDICATES FEW OR NO CLOUDS BELOW 12,000 FEET WITH NO
SIGNIFICANT WEATHER AND/OR OBSTRUCTIONS TO VISIBILITY.

* - THESE STATIONS ARE NOT NWS STATIONS...THUS NOT UNDER NWS
QUALITY CONTROL.  THEY ALSO DO NOT REPORT WEATHER SUCH
AS PRECIPITATION OR FOG.

IAZ001>003-012>014-020>022-031>034-043>046-220800-
   NORTHWEST IOWA

CITY           SKY/WX    TMP DP  RH WIND       PRES   REMARKS
CARROLL *      CLEAR     72  72 100 CALM      29.88R
CHEROKEE *     MOCLDY    73  73 100 CALM      29.87R FOG
DENISON *      CLEAR     75  75 100 S3        29.86R FOG
LE MARS *      CLEAR     73  72  94 CALM      29.88R
ORANGE CITY *  CLEAR     75  70  83 N8        29.87F
SHELDON *      CLEAR     70  70 100 N3        29.87F
SIOUX CITY     MOCLDY    77  74  90 N7        29.85F
SPENCER        PTCLDY    71  68  90 N6        29.87F
STORM LAKE *   MOCLDY    73  73 100 CALM      29.89R
$$

IAZ055>058-069>071-079>083-090>094-220800-
   SOUTHWEST IOWA

CITY           SKY/WX    TMP DP  RH WIND       PRES   REMARKS
ATLANTIC *     HVY RAIN  72  70  94 W13G22    29.92F
AUDUBON *      HVY RAIN  75  73  94 S13G28    29.91R
CLARINDA *     PTCLDY    79  75  89 N3        29.91R HX  82
COUNCIL BLFS * PTCLDY    72  72 100 N7        29.85S
CRESTON *      CLOUDY    79  75  89 NW25G33   29.92R HX  82
HARLAN  *      LGT RAIN  72  72 100 S13G23    29.92F
LAMONI         PTCLDY    80  73  79 SW12      29.88F HX  84
RED OAK *      CLOUDY    72  70  94 E7G15     29.87F
SHENANDOAH *   MOCLDY    81  75  83 VRB5G21   29.87S HX  86
$$

IAZ047>049-059>061-072>074-084-220800-
   CENTRAL IOWA

CITY           SKY/WX    TMP DP  RH WIND       PRES   REMARKS
AMES           MOCLDY    73  72  96 CALM      29.86R FOG
ANKENY *       CLEAR     75  75 100 CALM      29.85R
CHARITON *     MOCLDY    79  75  89 S7        29.86F HX  82
DES MOINES     CLOUDY    80  75  84 S7        29.85S HX  85
GRINNELL*      PTCLDY    77  73  88 SE6       29.87S
KNOXVILLE *    MOCLDY    79  73  83 SW9       29.83F HX  82
MARSHALLTOWN   PTCLDY    74  72  93 E5        29.86F
PELLA *        MOCLDY    78  75  89 CALM      29.86F HX  81
PERRY *          N/A     73  73 100 CALM      29.86R FOG
$$

IAZ004>006-015-016-023>025-035-036-220800-
   NORTH CENTRAL IOWA

CITY           SKY/WX    TMP DP  RH WIND       PRES   REMARKS
ALGONA *       CLEAR     72  72 100 CALM      29.87S FOG
CLARION *      CLEAR     73  73 100 CALM      29.87S
ESTHERVILLE    CLEAR     68  67  96 N7        29.87F
FORT DODGE *   MOCLDY    72  72 100 CALM      29.88R
MASON CITY     CLEAR     69  69 100 CALM      29.88F FOG
FOREST CITY *    N/A     70  70 100 CALM      29.86F FOG
IOWA FALLS *     N/A     72  70  94 SE3       29.88F FOG
$$

IAZ007>011-017>019-026>030-037>042-050>054-066-220800-
   NORTHEAST IOWA

CITY           SKY/WX    TMP DP  RH WIND       PRES   REMARKS
CEDAR RAPIDS   MOCLDY    73  73 100 E6        29.85F FOG
CHARLES CITY * CLEAR     72  72 100 SE5       29.87F FOG
CLINTON *      CLEAR     73  72  94 E6        29.90F
DECORAH *      CLEAR     72  70  94 VRB5      29.88F FOG
DUBUQUE        PTCLDY    71  71 100 CALM      29.89F
MONTICELLO *   FOG       68  68 100 CALM      29.87F VSB 1/4
OELWEIN *      CLEAR     72  72 100 SE7       29.88F FOG
WATERLOO       CLEAR     73  71  93 SE3       29.84F
$$

IAZ064-065-067-068-078-220800-
   EAST CENTRAL IOWA

CITY           SKY/WX    TMP DP  RH WIND       PRES   REMARKS
DAVENPORT      PTCLDY    73  72  96 E5        29.87F FOG
IOWA CITY      MOCLDY    73  73 100 CALM      29.86F FOG
MT. PLEASANT * PTCLDY    79  75  89 S7        29.86F HX  82
MUSCATINE *    CLOUDY    75  73  94 S5        29.86F
QUAD CITIES    MOCLDY    74  72  93 NE7       29.86F FOG
$$

IAZ062-063-075>077-085>089-095>099-220800-
   SOUTHEAST IOWA

CITY           SKY/WX    TMP DP  RH WIND       PRES   REMARKS
BURLINGTON     PTCLDY    75  74  96 S5        29.86F
FAIRFIELD *    CLOUDY    79  73  83 CALM      29.87S HX  82
FORT MADISON * CLEAR     79  75  89 S6        29.88F HX  82
KEOKUK *       PTCLDY    81  75  83 SW10      29.86F HX  86
OSKALOOSA *      N/A     77  75  94 SW6       29.86F
CENTERVILLE *  CLEAR     81  73  78 SW8       29.89F HX  85
OTTUMWA        MOCLDY    79  74  84 S8        29.85F HX  82
WASHINGTON *   CLOUDY    77  77 100 S5        29.86F
$$

ABBREVIATIONS USED IN REMARKS
   TC - TEMPERATURES IN CELSIUS
  WCI - WIND CHILL INDEX
   HX - HEAT INDEX
  VSB - VISIBILITY
$$



USA.gov is the U.S. government's official web portal to all federal, state and local government web resources and services.